Overview Statistics Trail Chart Weather Telemetry Raw packets
 

This is the latest recevied weather packets stored in our database for station/object YO6LRV-3. If no packets are shown the sender has not sent any weather packets the latest 10 day(s).

<< 1 2 3 4 5 6 >>
Time Temp. Humidity Pressure Rain* Wind** Luminosity Snow
1788481652 17.78° C 70% 1017.4 hPa - - - -
1788480752 17.78° C 68% 1017.5 hPa - - - -
1788479852 18.33° C 64% 1017.4 hPa - - - -
1788478951 18.89° C 61% 1017.5 hPa - - - -
1788478051 19.44° C 59% 1017.5 hPa - - - -
1788477151 19.44° C 59% 1017.5 hPa - - - -
1788476251 19.44° C 57% 1017.8 hPa - - - -
1788475351 20° C 58% 1018.1 hPa - - - -
1788474451 20.56° C 49% 1017.9 hPa - - - -
1788473551 20.56° C 46% 1017.7 hPa - - - -
1788472650 20.56° C 47% 1017.6 hPa - - - -
1788471750 20.56° C 51% 1017.3 hPa - - - -
1788470850 21.11° C 48% 1017.5 hPa - - - -
1788469950 21.11° C 45% 1017.5 hPa - - - -
1788469050 21.11° C 43% 1017.4 hPa - - - -
1788468150 21.11° C 43% 1017.4 hPa - - - -
1788466349 21.67° C 43% 1017.5 hPa - - - -
1788465449 21.67° C 42% 1017.6 hPa - - - -
1788464549 21.67° C 43% 1017.8 hPa - - - -
1788463649 21.67° C 43% 1017.7 hPa - - - -
1788462751 22.22° C 44% 1017.8 hPa - - - -
1788461851 22.22° C 44% 1017.8 hPa - - - -
1788460951 22.22° C 44% 1017.7 hPa - - - -
1788460051 22.22° C 43% 1017.7 hPa - - - -
1788459151 22.22° C 45% 1017.7 hPa - - - -

* Rain since midnight (hover to see other rain measurements)
** Current wind speed in m/s (hover to see current wind gust speed)